Regional Weather Roundup
Issued by NWS Charleston, SC

Current Version | Previous Version | Graphics & Text | Print | Product List | Glossary On
Versions: 1 2 3 4 5 6 7 8 9 10 11 12 13 14 15 16 17 18 19 20 21 22 23 24 25 26 27 28 29 30 31 32 33 34 35 36 37 38 39 40 41 42 43 44 45 46 47 48 49 50
000
ASUS42 KCHS 262328
RWRCHS

REGIONAL WEATHER ROUNDUP
NATIONAL WEATHER SERVICE CHARLESTON SC
700 PM EDT FRI AUG 26 2016

NOTE: "FAIR" INDICATES FEW OR NO CLOUDS BELOW 12,000 FEET WITH NO
SIGNIFICANT WEATHER AND/OR OBSTRUCTIONS TO VISIBILITY.

NOT ALL STATIONS ARE QUALITY CONTROLLED. USE DATA WITH CAUTION...
ESPECIALLY DEWPOINT OBSERVATIONS.

SCZ027-030-031-034>040-042>050-270000-
...SOUTHEAST SOUTH CAROLINA...

CITY           SKY/WX    TMP DP  RH WIND       PRES   REMARKS
N CHARLESTON   PTCLDY    86  70  58 SE10      30.03S HX  90
WATERFRONT PRK   N/A     87  75  67 E8        30.02S HX  96
MOUNT PLEASANT FAIR      82  73  74 CALM      30.04S
JOHNS ISLAND   FAIR      82  73  74 E9        30.03F
PINOPOLIS        N/A     90  72  55 SE6       29.96R HX  96
MONCKS CORNER  FAIR      84  73  70 S5        30.03S HX  91
SUMMERVILLE    FAIR      88  73  62 SE5       30.03S HX  96
BEAUFORT MCAS  SUNNY     85  73  67 SE8G17    30.03S HX  91
BEAUFORT ARPT  FAIR      82  72  69 E9        30.03R
HILTON HEAD IS NOT AVBL
WALTERBORO     CLEAR     88  72  58 SE6       30.04R HX  94
ALLENDALE      FAIR      90  72  55 SE8       30.01S HX  96

...SOUTHERN MIDLANDS AND PEE DEE...

CITY           SKY/WX    TMP DP  RH WIND       PRES   REMARKS
GEORGETOWN     FAIR      81  70  69 E8        30.06R
KINGSTREE      FAIR      86  70  58 SE10      30.03R HX  90
ORANGEBURG     SUNNY     90  71  53 SE8       30.03S HX  96
BARNWELL       NOT AVBL
AIKEN          FAIR      90  70  51 SE7       30.06F HX  95
MANNING        FAIR      86  72  62 S6        30.03R HX  92
COLUMBIA       MOSUNNY   93  69  45 SE10      30.00F HX  98
SUMTER         SUNNY     92  71  50 SE8       30.00R HX  99
FLORENCE       CLEAR     92  70  48 SE8       30.02S HX  97
MYRTLE BEACH   NOT AVBL
N MYRTLE BEACH CLEAR     84  72  67 SE6       30.04S

$$

GAZ063-065-086>088-099>101-113>116-118-119-134>141-150-270000-
...SOUTHEAST GEORGIA...

CITY           SKY/WX    TMP DP  RH WIND       PRES   REMARKS
SAVANNAH ARPT  MOSUNNY   85  69  58 SE15      30.03S
HUNTER AAF     SUNNY     84  74  72 E13       30.00F HX  92
FORT STEWART   SUNNY     85  69  58 E10       30.00S
STATESBORO     SUNNY     89  73  59 SE6       30.02S HX  97
SYLVANIA       NOT AVBL
CLAXTON        FAIR      88  72  60 E3        30.02S HX  94

...CSRA...CENTRAL AND FAR SOUTHEAST GEORGIA...

CITY           SKY/WX    TMP DP  RH WIND       PRES   REMARKS
THOMSON        SUNNY     94  73  49 MISG      30.06S HX 102
AUGUSTA-BUSH   SUNNY     92  69  47 SE7       30.00S HX  97
AUGUSTA-DANIEL SUNNY     94  69  44 SE6       30.02S HX  99
SWAINSBORO     FAIR      91  66  43 SE6       30.03R HX  94
VIDALIA        SUNNY     90  72  55 SE6       30.02S HX  96
EASTMAN        FAIR      93  46  20 SE8       30.02S
HAZLEHURST     FAIR      90  68  48 CALM      30.00R HX  94
ALMA           SUNNY     87  67  51 E7        30.01S HX  90
WAYCROSS         N/A     89  70  53 E8        30.01S HX  94
JESUP          FAIR      86  73  66 E8        30.03R HX  93
BAXLEY         FAIR      88  73  62 E6        30.01S HX  96
BRUNSWICK      MOSUNNY   82  73  74 NE8       30.03S
SAINT SIMONS   MOSUNNY   84  69  60 E8        30.01F

$$

SCZ027-028-034-036>038-045-046-048>050-GAZ119-141-270000-
...LAKE AND SUPPLEMENTAL COASTAL OBSERVATIONS...

STATION/POSITION TIME  TEMP    WIND        PRES    WAVE   SWELL
                       AIR SEA DIR/SP/G            HT/PER HT/PER/DIR
                 (UTC) (F)     (DEG/KT/KT) (MB)    (FT/S) (FT/S/D)
WINYAH BAY       2200   83     120/  6     1017.0
LAKE MURRAY      2200   92     180/  7/  8 1015.6S
ACE BASIN NERRS  2200   87     110/  4     1017.0S
FORT PULASKI     2300   84 86   80/ 10/ 12 1017.4F
SAPELO ISLAND    2200   86      80/  9     1017.0S

$$

ANZ835-935-AMZ111-154-330-350-352-354-370-450-454-472-270000-
...C-MAN AND BUOY OBSERVATIONS...

STATION/POSITION TIME  TEMP    WIND        PRES    WAVE   SWELL
                       AIR SEA DIR/SP/G            HT/PER HT/PER/DIR
                 (UTC) (F)     (DEG/KT/KT) (MB)    (FT/S) (FT/S/D)
BUOY 41004       2250   83 83   70/ 12/ 16 1016.3F   3/ 4   2/120/ 7
BUOY 41008       2250   83 85   70/ 14/ 16 1016.3S   4/ 5   2/110/ 8
FOLLY BEACH CMAN 2300   83      80/  9/ 10 1017.5F
CAPERS NEARSHORE 2208   83 84   90/  8/ 14 1017.1R
FRIPP NEARSHORE  2208   83 86   90/ 14/ 16 1016.2F


STATION/POSITION TIME  TEMP    WIND        PRES    WAVE   SWELL
                       AIR SEA DIR/SP/G            HT/PER HT/PER/DIR
                 (UTC) (F)     (DEG/KT/KT) (MB)    (FT/S) (FT/S/D)
5E ST. MARYS GA  2301      85                N/A     3/ 8
FRYING PAN BUOY  2300   83 85   70/ 10/ 14 1017.0R
BUOY 41025       2250   83 87  150/  2/  4 1017.9F   2/ 8   2/ 90/ 8
CAPE LOOKOUT NC  2300   82     110/  4/  5 1017.4F
BUOY 41002       2250   82 84   70/ 16/ 17 1016.1R   5/11   3/120/11
BUOY 41010       NOT AVBL
ST AUGUSTINE FL  2300   83 84   60/ 13/ 15 1016.5F


$$




USA.gov is the U.S. government's official web portal to all federal, state and local government web resources and services.